Showing default

SATORO-T3, 64589

Orbit data source: Space-Track

SATORO-T3, 64589 is a payload satellite owned by Satoro (SG) in SSO that was launched on Mon, 23 Jun 2025 UTC via an FALCON 9 launch vehicle from the Air Force Western Test Range (AFWTR). Payload-class satellites include a variety of spacecraft equipped with specific instruments for various scientific and technological missions. These include communications satellites like Starlink; space stations such as the ISS; scientific satellites like the Hubble; Earth observation satellites from companies like Planet Labs, Umbra, and HawkEye 360; GPS; miniature CubeSats for education and research; and military/defense satellites.

Loading next visibility...
Identifier
64589, 2025-135BP
Orbit
SSO
Country
Flag of SGSG / SING
Related business
Manufacturer
Satoro
Mission
Operational Commercial Technology
Bus & Motor
CUBESAT 3U, Unknown motor
Mass
4 kg wet, 4 kg dry
Launch date (UTC)
2025-06-23 (1 year ago)
Launch vehicle
FALCON 9
Launch site
Air Force Western Test Range (AFWTR)
Object type
Payload
Rocket body
Debris
Shape & HBR
Box, 0.1 m
Radar Cross Section
0.035 m², Medium (>0.1 m² and < 1m²)

Expand to show TLE details & history
Last TLE update: 11 hours ago

TLE from 11 hours ago
0 SATORO-T3
1 64589U 25135BP  26171.37674100  .00001165  00000-0  11368-3 0  9998
2 64589  97.7719 285.8704 0004030 337.8242  22.2803 14.94347562 54386
Epoch: 2026-06-20T09:02Z
TLE epoch observation values (Epoch: 2026-06-20T09:02:30.422Z)
Latitude
-0.00004°
Longitude
-118.3486°
Altitude
584.847 km
Speed
7.569 km/s
True Right ascension
19h 03m 28s
True Declination
0° 00' 00"
Sunlit
Object was in full shadow at epoch
Visualization orbit readout
Latitude
Unknown
Longitude
Unknown
Altitude
Unknown
Speed
Unknown
Apparent Right ascension
Unknown
Apparent Declination
Unknown
Sunlit
N/A
Visualization observer readout
Local Sidereal Time
07:18:50
Azimuth
Unknown
Elevation
Unknown
Doppler factor
Unknown
Orbital elements
Apogee altitude
584.219 km
Perigee altitude
578.61 km
Semi-major axis
6,959.552 km
Eccentricity
0.0004
Inclination
97.7719°
RAAN
285.8704°
Arg. of periapsis
337.8242°
True anomaly
22.29782°
Mean anomaly
22.2803°
Eccentric anomaly
22.28906°
Mean motion
3.73828 °/min
Orbital period
96.3 mins
BSTAR
0.00011368
Loading maneuver chart data...
Computing Atmospheric mass density...
Loading historical data...
Loading historical data...
Loading historical data...
Loading historical data...
Loading historical data...
Loading historical data...
Loading historical data...

Documentation

Showing up to 5 results
|